Location: Riverside Cemetery
(38.3047°N, 99.7773°W)
Time: 07:14:05
(UTC+00:00)

Cosmos 44 - Pass Details

Date: 19 September 2020
Orbit: 581 x 781 km, 65.1° (Epoch: 19 October)

Event Time Altitude Azimuth Distance (km) Brightness Sun altitude
Exits shadow 09:58:38 47° 48° (NE) 812 3.9 -28.4°
Drops below altitude 10° 10:01:59 10° 34° (NE) 2,017 6.4 -27.8°
Sets 10:04:20 0° 33° (NNE) 2,962 7.4 -27.4°
